Lid_Strength_Index
2 0 -1 -2 -2 -2 -1 -2 -2 -2 -2 -2 -2 -2 -2 -2 -2 -2 -2 -2 -2 -2 -2 -2 -2 -2 -2 -2 -2 -2 -2 -2 -2 -2 -2 -2 -2 -2 -2 -2 -2 -1 -2
0 -0 -1 -2 -2 -1 -1 -2 -2 -2 -2 -2 -2 -2 -2 -2 -2 -2 -2 -2 -2 -2 -2 -2 -2 -2 -2 -2 -2 -2 -2 -2 -2 -1 -1 -1 -2 -2 -2 -2 -2 -1 -2
0 -0 -0 -1 -2 -1 -2 -2 -2 -2 -2 -2 -2 -2 -2 -2 -2 -2 -2 -2 -2 -2 -2 -2 -2 -2 -2 -2 -2 -2 -2 -2 -2 -1 -1 1 0 -2 -2 -2 -2 -2 -2
-0 -0 -0 -1 -1 -2 -2 -2 -2 -2 -2 -2 -2 -2 -2 -2 -2 -2 -2 -2 -2 -2 -2 -2 -2 -2 -2 -2 -2 -2 -2 -2 -2 -1 1 1 -0 -2 -2 -2 -2 -2 -2
0 -0 -0 -1 -1 -2 -2 -2 -2 -2 -2 -2 -2 -2 -2 -2 -2 -2 -2 -2 -2 -2 -2 -2 -2 -2 -2 -2 -2 -2 -2 -2 -1 1 1 0 0 -2 -2 -2 -2 -2 -2
1 0 -1 -1 -2 -2 -2 -2 -2 -2 -2 -2 -2 -2 -2 -2 -2 -2 -2 -2 -2 -2 -2 -2 -2 -2 -2 -2 -2 -2 -2 -2 -1 1 1 0 -0 -2 -2 -2 -2 -2 -2
1 -0 -0 -1 -1 -2 -2 -2 -2 -2 -2 -2 -2 -2 -2 -2 -2 -2 -2 -2 -2 -2 -2 -2 -2 -2 -2 -2 -2 -2 -2 -2 1 1 1 1 -1 -2 -2 -3 -2 -2 -1
0 -0 -0 0 -1 -1 -1 -2 -2 -2 -2 -2 -2 -2 -2 -2 -2 -2 -2 -2 -2 -2 -2 -2 -2 -2 -2 -2 -2 -2 -1 -1 1 1 1 1 -2 -2 -2 -2 -2 -2 -1
-0 0 0 0 -0 -0 -1 -1 -1 -1 -2 -2 -2 -2 -2 -2 -2 -2 -2 -2 -1 -1 -2 -2 -2 -2 -2 -2 -1 -0 0 0 2 1 0 0 -2 -2 -2 -2 -2 -2 -1
0 0 -0 0 0 0 1 1 0 -1 -1 -2 -1 -1 -1 -1 -1 -1 -1 -2 -1 -2 -2 -2 -2 -2 -2 -1 -0 1 2 2 3 2 1 -1 -2 -2 -2 -2 -2 -1 -1
1 0 0 0 0 1 1 1 1 0 -0 -0 0 1 1 0 0 0 -0 -1 -2 -2 -2 -2 -1 -0 0 1 1 2 3 4 4 4 2 -1 -2 -2 -2 -2 -2 -1 -1
2 1 0 -0 0 1 -0 1 1 0 1 1 1 1 0 0 0 -0 1 1 -0 -1 -1 -1 -0 1 2 2 3 3 5 6 5 5 3 -1 -1 -2 -2 -1 -1 -1 -0
2 1 1 1 1 0 0 1 1 1 1 1 1 1 0 0 1 1 2 2 2 1 -0 1 2 3 3 4 4 5 6 7 7 6 3 0 0 -0 -1 -0 -0 0 0
2 1 1 1 1 1 0 0 1 1 1 1 1 1 1 1 2 2 2 3 3 2 3 3 4 4 5 6 6 6 8 8 8 7 5 2 1 1 1 1 1 0 1
2 1 1 1 0 1 0 1 1 1 1 1 1 1 1 2 2 2 2 3 3 3 3 4 4 4 6 6 7 8 9 10 10 9 8 4 2 2 2 1 1 1 1
2 1 1 1 0 0 1 1 2 2 1 1 1 1 1 2 2 1 3 4 4 3 4 4 4 5 5 6 8 9 11 11 11 11 11 9 4 3 2 2 2 1 1
2 1 1 1 0 1 1 2 2 2 2 1 1 1 1 1 1 0 3 4 4 3 4 4 5 5 6 7 9 11 12 12 13 12 12 12 11 6 4 3 2 2 2
1 2 1 1 1 1 1 2 2 2 1 1 1 2 1 1 1 2 4 4 4 4 4 5 5 6 8 9 12 12 13 13 13 13 13 13 13 12 8 4 4 3 2
2 2 2 2 1 1 1 1 2 2 1 1 2 2 1 1 2 3 4 4 4 4 4 5 6 7 9 11 12 13 13 14 14 13 15 15 14 14 14 8 6 4 2
3 2 2 1 1 1 1 1 2 2 2 2 2 2 2 2 3 3 5 4 3 4 5 6 6 8 10 11 11 13 14 14 15 15 15 15 15 15 15 14 14 10 4
3 3 2 2 1 1 2 2 3 3 2 3 3 2 2 3 3 4 5 5 4 4 4 5 7 9 11 11 12 13 14 14 15 16 16 16 16 16 15 15 14 13 11
3 3 3 2 2 1 1 1 3 3 3 3 3 3 2 3 4 4 5 5 4 5 5 5 7 9 10 10 12 13 15 14 15 15 16 16 17 16 16 15 14 13 13
3 3 3 3 2 2 1 2 5 5 5 5 4 4 4 4 5 5 6 6 5 5 5 5 6 8 10 10 10 11 14 14 15 15 16 16 17 17 17 16 14 12 13
3 2 3 3 2 2 2 2 3 3 3 3 2 4 5 5 6 6 6 6 6 5 5 6 7 8 9 10 11 9 11 12 14 16 16 16 16 16 17 16 15 14 14
4 3 2 3 3 2 2 2 3 3 2 5 6 5 5 7 6 7 7 7 7 6 5 6 7 8 8 10 10 11 12 13 13 15 17 17 17 16 16 16 15 15 14
4 4 3 3 3 2 2 2 2 3 4 6 5 5 5 7 8 7 7 8 8 7 7 6 6 8 8 10 10 11 12 12 13 15 16 17 17 16 16 16 15 15 15